Location: Ahausen
(50.4985°N, 8.2722°E)
Time: 07:07:14
(UTC+00:00)

Cosmos 1428 Rocket - Pass Details

Date: 18 September 2020
Orbit: 948 x 988 km, 82.9° (Epoch: 19 October)

Event Time Altitude Azimuth Distance (km) Brightness Sun altitude
Rises 20:07:46 0° 349° (N) 3,706 8.2 -23.8°
Reaches altitude 10° 20:10:18 10° 349° (NNW) 2,749 7.5 -24.2°
Maximum altitude 20:16:37 81° 263° (W) 994 4.5 -25.0°
Enters shadow 20:18:53 42° 182° (S) 1,354 4.9 -25.2°
